Terminal Aerodrome Forecast
Issued by NWS Omaha/Valley, NE

Home | Current Version | Previous Version | Text Only | Print | Product List | Glossary On
Versions: 1 2 3 4 5 6 7 8 9 10 11 12 13 14 15 16 17 18 19 20 21 22 23 24 25 26 27 28 29 30 31 32 33 34 35 36 37 38 39 40 41 42 43 44
000
FTUS43 KOAX 221536 AAP
TAFOFK
TAF AMD
KOFK 221536Z 2216/2312 04012KT 6SM BR VCSH OVC007
     FM221700 36012KT 4SM BR OVC003
     FM221800 36014G24KT 5SM BR OVC003
     FM222100 35021G30KT P6SM OVC008
     FM230800 33020G30KT P6SM OVC015=

USA.gov is the U.S. government's official web portal to all federal, state and local government web resources and services.